Location: Lourdes
(43.1000°N, 0.0500°W)
Time: 04:21:05
(UTC+00:00)

Cosmos 2218 Rocket - Pass Details

Date: 30 November 2020
Orbit: 956 x 1005 km, 82.9° (Epoch: 24 January)

Event Time Altitude Azimuth Distance (km) Brightness Sun altitude
Rises 17:47:40 0° 351° (N) 3,647 6.9 -14.4°
Reaches altitude 10° 17:50:10 10° 350° (N) 2,697 6.3 -14.9°
Maximum altitude 17:56:19 81° 265° (W) 975 4.1 -16.0°
Drops below altitude 10° 18:02:28 10° 178° (S) 2,689 6.5 -17.0°
Sets 18:04:58 0° 178° (S) 3,637 7.1 -17.5°
